KF5JED-13 Weather Reports


time (UTC)temp
C
wind
direction
speed
KPH
gust
KPH
rain 1hr
cm
rain 24hr
cm
rain mn
cm
humidity
%
barometer
mb
20260509105038 10 141 0.0 3.2 0.00 0.00 0.00 63 1013.7
20260509104534 10 49 0.0 3.2 0.00 0.00 0.00 63 1013.7
20260509104031 10 92 0.0 1.6 0.00 0.00 0.00 62 1013.8
20260509103529 10 119 0.0 1.6 0.00 0.00 0.00 61 1013.6
20260509103027 10 106 1.6 3.2 0.00 0.00 0.00 61 1013.8
20260509102525 10 124 0.0 3.2 0.00 0.00 0.00 61 1013.6
20260509102021 10 155 1.6 3.2 0.00 0.00 0.00 61 1013.8
20260509101517 10 126 1.6 1.6 0.00 0.00 0.00 60 1013.6
20260509101014 11 141 0.0 0.0 0.00 0.00 0.00 59 1013.8
20260509100512 11 136 3.2 3.2 0.00 0.00 0.00 57 1013.7
20260509100009 12 150 3.2 3.2 0.00 0.00 0.00 55 1013.7
20260509095505 13 122 4.8 9.7 0.00 0.00 0.00 53 1013.5
20260509095002 13 129 4.8 8.0 0.00 0.00 0.00 53 1013.7
20260509094458 13 116 4.8 8.0 0.00 0.00 0.00 53 1013.8
20260509093956 13 113 6.4 9.7 0.00 0.00 0.00 53 1013.6
20260509093454 14 138 6.4 11.3 0.00 0.00 0.00 52 1013.7
20260509092952 14 119 6.4 14.5 0.00 0.00 0.00 51 1013.5
20260509092449 13 135 8.0 12.9 0.00 0.00 0.00 51 1013.8
20260509091948 13 131 6.4 11.3 0.00 0.00 0.00 51 1013.5
20260509091444 14 96 4.8 9.7 0.00 0.00 0.00 50 1013.3
20260509090942 15 92 6.4 14.5 0.00 0.00 0.00 49 1013.3
20260509090439 15 102 9.7 14.5 0.00 0.00 0.00 49 1013.5
20260509085937 15 102 9.7 11.3 0.00 0.00 0.00 48 1013.6
20260509085433 15 106 6.4 16.1 0.00 0.00 0.00 48 1013.6
20260509084929 15 94 8.0 11.3 0.00 0.00 0.00 48 1013.5
20260509084426 15 115 11.3 14.5 0.00 0.00 0.00 47 1013.2
20260509083924 15 101 6.4 19.3 0.00 0.00 0.00 46 1013.3
20260509083421 16 93 17.7 20.9 0.00 0.00 0.00 46 1013.6
20260509082918 16 110 8.0 19.3 0.00 0.00 0.00 46 1013.3
20260509082415 16 110 16.1 22.5 0.00 0.00 0.00 45 1013.2
20260509081912 16 89 11.3 20.9 0.00 0.00 0.00 45 1013.0
20260509081409 16 99 12.9 22.5 0.00 0.00 0.00 45 1013.0
20260509080907 16 91 14.5 20.9 0.00 0.00 0.00 46 1013.1
20260509080404 15 89 16.1 22.5 0.00 0.00 0.00 46 1013.2
20260509075903 16 103 12.9 17.7 0.00 0.00 0.00 46 1013.3
20260509075359 15 97 16.1 19.3 0.00 0.00 0.00 46 1013.5
20260509074856 15 92 6.4 17.7 0.00 0.00 0.00 47 1013.2
20260509074354 15 84 9.7 12.9 0.00 0.00 0.00 47 1013.5
20260509073850 15 101 12.9 16.1 0.00 0.00 0.00 47 1013.3
20260509073347 15 96 6.4 11.3 0.00 0.00 0.00 47 1013.7
20260509072843 15 88 4.8 14.5 0.00 0.00 0.00 46 1013.6
20260509072340 16 95 12.9 19.3 0.00 0.00 0.00 45 1013.2
20260509071837 16 87 11.3 22.5 0.00 0.00 0.00 44 1013.5
20260509071333 16 89 14.5 20.9 0.00 0.00 0.00 44 1013.7
20260509070831 16 87 12.9 17.7 0.00 0.00 0.00 44 1013.5
20260509070327 16 92 11.3 20.9 0.00 0.00 0.00 44 1013.5
20260509065824 16 102 14.5 20.9 0.00 0.00 0.00 44 1013.5
20260509065320 16 86 9.7 20.9 0.00 0.00 0.00 45 1013.6
20260509064816 16 97 6.4 16.1 0.00 0.00 0.00 45 1013.3
20260509064314 16 88 11.3 19.3 0.00 0.00 0.00 45 1013.2
20260509063811 16 86 14.5 24.1 0.00 0.00 0.00 44 1012.9
20260509063307 16 85 11.3 17.7 0.00 0.00 0.00 44 1012.9
20260509062804 16 98 14.5 17.7 0.00 0.00 0.00 44 1012.9
20260509062305 16 83 9.7 17.7 0.00 0.00 0.00 43 1012.8
20260509061758 17 80 9.7 16.1 0.00 0.00 0.00 42 1012.9
20260509061256 17 92 16.1 17.7 0.00 0.00 0.00 41 1013.0
20260509060753 17 70 16.1 22.5 0.00 0.00 0.00 41 1012.6
20260509060250 17 59 14.5 16.1 0.00 0.00 0.00 41 1012.8
20260509055746 17 75 12.9 17.7 0.00 0.00 0.00 41 1013.0
20260509055241 17 63 14.5 17.7 0.00 0.00 0.00 41 1012.9
20260509054738 17 73 12.9 19.3 0.00 0.00 0.00 41 1013.1
20260509054235 16 91 6.4 14.5 0.00 0.00 0.00 42 1013.0
20260509053734 16 89 12.9 14.5 0.00 0.00 0.00 41 1012.9
20260509053230 17 77 9.7 14.5 0.00 0.00 0.00 41 1013.1
20260509052728 16 77 9.7 12.9 0.00 0.00 0.00 41 1013.2
20260509052226 17 91 9.7 16.1 0.00 0.00 0.00 40 1013.2
20260509051723 17 91 9.7 12.9 0.00 0.00 0.00 40 1013.5
20260509051221 17 97 9.7 12.9 0.00 0.00 0.00 40 1013.5
20260509050717 17 92 11.3 14.5 0.00 0.00 0.00 40 1013.3
20260509050214 17 86 11.3 14.5 0.00 0.00 0.00 40 1013.2
20260509045711 18 96 6.4 12.9 0.00 0.00 0.00 39 1013.1
20260509045208 18 86 9.7 16.1 0.00 0.00 0.00 38 1013.2
20260509044706 17 91 8.0 12.9 0.00 0.00 0.00 39 1013.3
20260509044203 17 105 9.7 9.7 0.00 0.00 0.00 39 1013.2
20260509043659 17 84 12.9 14.5 0.00 0.00 0.00 40 1013.1
20260509043155 17 106 9.7 11.3 0.00 0.00 0.00 39 1013.3
20260509042651 17 94 3.2 4.8 0.00 0.00 0.00 40 1013.3
20260509042148 17 95 1.6 6.4 0.00 0.00 0.00 40 1013.2
20260509041644 18 88 6.4 8.0 0.00 0.00 0.00 38 1013.1
20260509041142 18 94 6.4 8.0 0.00 0.00 0.00 38 1013.2
20260509040640 18 89 6.4 9.7 0.00 0.00 0.00 38 1013.2
20260509040137 18 91 6.4 9.7 0.00 0.00 0.00 37 1013.1
20260509035634 19 91 8.0 11.3 0.00 0.00 0.00 37 1013.1
20260509035130 18 85 9.7 11.3 0.00 0.00 0.00 37 1013.0
20260509034628 18 87 9.7 9.7 0.00 0.00 0.00 37 1013.2
20260509034125 19 98 11.3 11.3 0.00 0.00 0.00 36 1013.1
20260509033622 18 92 8.0 12.9 0.00 0.00 0.00 36 1013.1
20260509033119 18 126 8.0 11.3 0.00 0.00 0.00 37 1013.0
20260509032616 18 138 6.4 11.3 0.00 0.00 0.00 35 1012.9
20260509032113 20 97 9.7 12.9 0.00 0.00 0.00 35 1012.8
20260509031611 20 80 8.0 12.9 0.00 0.00 0.00 36 1012.7
20260509031108 19 84 6.4 11.3 0.00 0.00 0.00 36 1012.6
20260509030606 18 117 4.8 6.4 0.00 0.00 0.00 37 1012.9
20260509025559 20 129 8.0 9.7 0.00 0.00 0.00 34 1012.7
20260509025054 20 78 8.0 9.7 0.00 0.00 0.00 34 1012.6
20260509024550 20 76 9.7 11.3 0.00 0.00 0.00 34 1012.5
20260509024046 21 77 8.0 11.3 0.00 0.00 0.00 33 1012.6
20260509023545 21 66 9.7 16.1 0.00 0.00 0.00 32 1012.5
20260509023041 21 74 9.7 14.5 0.00 0.00 0.00 32 1012.6
20260509022538 21 77 9.7 11.3 0.00 0.00 0.00 32 1012.3
20260509022036 21 80 6.4 11.3 0.00 0.00 0.00 32 1012.1
20260509021532 21 82 8.0 12.9 0.00 0.00 0.00 32 1012.2
20260509021029 21 91 6.4 9.7 0.00 0.00 0.00 32 1012.3
20260509020528 21 86 6.4 11.3 0.00 0.00 0.00 31 1012.2
20260509020024 22 85 8.0 12.9 0.00 0.00 0.00 31 1012.2
20260509015523 22 77 6.4 14.5 0.00 0.00 0.00 31 1012.0
20260509015020 22 69 9.7 11.3 0.00 0.00 0.00 30 1012.0
20260509014517 22 46 6.4 11.3 0.00 0.00 0.00 30 1011.9
20260509014013 23 61 8.0 9.7 0.00 0.00 0.00 29 1011.9
20260509013510 23 42 4.8 9.7 0.00 0.00 0.00 28 1011.9
20260509013005 23 50 9.7 14.5 0.00 0.00 0.00 29 1011.9
20260509012502 24 68 12.9 12.9 0.00 0.00 0.00 28 1011.9
20260509011959 24 43 6.4 12.9 0.00 0.00 0.00 27 1011.8
20260509011457 25 53 8.0 14.5 0.00 0.00 0.00 27 1011.7
20260509010954 25 42 9.7 20.9 0.00 0.00 0.00 26 1011.7
20260509010452 25 23 8.0 16.1 0.00 0.00 0.00 26 1011.7
20260509005948 25 17 9.7 17.7 0.00 0.00 0.00 25 1011.6
20260509005446 25 31 8.0 16.1 0.00 0.00 0.00 25 1011.6
20260509004940 26 22 9.7 12.9 0.00 0.00 0.00 25 1011.5
20260509004437 26 7 11.3 16.1 0.00 0.00 0.00 25 1011.7
20260509003935 26 21 9.7 17.7 0.00 0.00 0.00 25 1011.3
20260509003433 26 9 12.9 20.9 0.00 0.00 0.00 25 1011.3
20260509002930 26 8 12.9 20.9 0.00 0.00 0.00 25 1011.5
20260509002428 26 11 11.3 16.1 0.00 0.00 0.00 25 1011.2
20260509001924 26 20 12.9 20.9 0.00 0.00 0.00 25 1011.5
20260509001421 26 42 16.1 22.5 0.00 0.00 0.00 24 1011.3
20260509000918 26 16 16.1 22.5 0.00 0.00 0.00 24 1011.3
20260509000418 26 18 11.3 16.1 0.00 0.00 0.00 24 1011.2
20260508235911 26 9 16.1 30.6 0.00 0.00 0.00 24 1011.2
20260508235409 26 0 20.9 27.4 0.00 0.00 0.00 24 1011.2
20260508234906 26 24 12.9 27.4 0.00 0.00 0.00 24 1011.2
20260508234403 26 1 19.3 27.4 0.00 0.00 0.00 24 1011.2
20260508233901 26 6 24.1 33.8 0.00 0.00 0.00 24 1011.2
20260508233400 27 3 14.5 22.5 0.00 0.00 0.00 24 1011.1
20260508232856 27 6 22.5 32.2 0.00 0.00 0.00 24 1011.0
20260508232353 27 21 16.1 30.6 0.00 0.00 0.00 24 1011.1
20260508231851 27 354 9.7 20.9 0.00 0.00 0.00 24 1011.2
20260508231347 27 355 16.1 27.4 0.00 0.00 0.00 23 1011.2
20260508230844 27 8 14.5 17.7 0.00 0.00 0.00 24 1011.1
20260508230340 27 51 6.4 19.3 0.00 0.00 0.00 24 1011.2
20260508225838 27 22 11.3 17.7 0.00 0.00 0.00 23 1011.1
20260508225334 27 21 11.3 17.7 0.00 0.00 0.00 23 1011.1
20260508224833 27 11 16.1 20.9 0.00 0.00 0.00 23 1011.1
20260508224330 27 358 24.1 30.6 0.00 0.00 0.00 23 1011.0
20260508223827 27 36 16.1 25.7 0.00 0.00 0.00 24 1011.0
20260508223324 27 10 19.3 25.7 0.00 0.00 0.00 23 1011.1
20260508222822 27 36 6.4 16.1 0.00 0.00 0.00 24 1011.1
20260508222319 27 11 11.3 24.1 0.00 0.00 0.00 24 1011.0
20260508221815 27 24 8.0 20.9 0.00 0.00 0.00 24 1010.9
20260508221311 27 5 24.1 32.2 0.00 0.00 0.00 24 1011.0
20260508220807 27 356 14.5 24.1 0.00 0.00 0.00 23 1011.1
20260508220304 27 14 19.3 35.4 0.00 0.00 0.00 24 1011.1
20260508215801 27 355 29.0 30.6 0.00 0.00 0.00 23 1010.8
20260508215257 27 22 16.1 27.4 0.00 0.00 0.00 23 1010.9
20260508214754 27 11 19.3 27.4 0.00 0.00 0.00 24 1011.0
20260508214251 27 23 17.7 24.1 0.00 0.00 0.00 23 1010.9
20260508213748 27 14 17.7 27.4 0.00 0.00 0.00 22 1010.9
20260508213244 28 23 19.3 27.4 0.00 0.00 0.00 22 1011.0
20260508212735 27 28 14.5 24.1 0.00 0.00 0.00 21 1010.8
20260508212232 27 12 25.7 33.8 0.00 0.00 0.00 22 1010.9
20260508211727 28 2 14.5 35.4 0.00 0.00 0.00 21 1010.9
20260508211223 27 4 12.9 32.2 0.00 0.00 0.00 22 1010.9
20260508210721 28 30 17.7 25.7 0.00 0.00 0.00 22 1010.7
20260508210218 28 28 20.9 35.4 0.00 0.00 0.00 23 1011.0
20260508205715 28 38 19.3 27.4 0.00 0.00 0.00 22 1011.1
20260508205211 28 27 24.1 30.6 0.00 0.00 0.00 22 1011.0
20260508204707 28 331 17.7 27.4 0.00 0.00 0.00 21 1011.1
20260508204204 28 11 17.7 27.4 0.00 0.00 0.00 22 1011.0
20260508203700 28 3 30.6 33.8 0.00 0.00 0.00 21 1011.0
20260508203156 28 46 19.3 24.1 0.00 0.00 0.00 22 1011.2
20260508202652 28 337 17.7 30.6 0.00 0.00 0.00 21 1011.1
20260508202150 27 12 8.0 19.3 0.00 0.00 0.00 23 1011.0
20260508201646 27 346 16.1 25.7 0.00 0.00 0.00 21 1011.0
20260508201143 28 31 17.7 22.5 0.00 0.00 0.00 22 1011.1
20260508200640 27 346 11.3 27.4 0.00 0.00 0.00 22 1011.1
20260508200136 28 0 19.3 30.6 0.00 0.00 0.00 23 1011.1
20260508195633 28 351 20.9 25.7 0.00 0.00 0.00 24 1011.0
20260508195129 28 27 14.5 20.9 0.00 0.00 0.00 25 1011.0
20260508194626 27 62 11.3 22.5 0.00 0.00 0.00 26 1011.3
20260508194123 27 353 20.9 24.1 0.00 0.00 0.00 24 1011.2
20260508193620 28 351 20.9 27.4 0.00 0.00 0.00 25 1011.1
20260508193116 27 56 6.4 16.1 0.00 0.00 0.00 26 1011.3
20260508192613 27 0 19.3 25.7 0.00 0.00 0.00 25 1011.3
20260508192110 27 0 19.3 24.1 0.00 0.00 0.00 24 1011.3
20260508191607 28 82 16.1 22.5 0.00 0.00 0.00 25 1011.1
20260508191104 27 352 25.7 29.0 0.00 0.00 0.00 24 1011.2
20260508190601 27 343 16.1 17.7 0.00 0.00 0.00 25 1011.2
20260508190057 27 351 11.3 25.7 0.00 0.00 0.00 25 1011.5
20260508185554 27 328 17.7 22.5 0.00 0.00 0.00 25 1011.2
20260508185053 27 343 11.3 25.7 0.00 0.00 0.00 25 1011.3
20260508184549 27 6 8.0 29.0 0.00 0.00 0.00 25 1011.1
20260508184046 27 0 17.7 17.7 0.00 0.00 0.00 24 1011.2
20260508183542 27 346 1.6 16.1 0.00 0.00 0.00 24 1011.3
20260508183038 26 338 9.7 14.5 0.00 0.00 0.00 24 1011.3
20260508182534 27 319 9.7 19.3 0.00 0.00 0.00 25 1011.3
20260508182026 27 232 16.1 20.9 0.00 0.00 0.00 25 1011.5
20260508181521 26 233 4.8 16.1 0.00 0.00 0.00 25 1011.2
20260508181019 26 295 6.4 14.5 0.00 0.00 0.00 26 1011.8
20260508180515 26 321 14.5 20.9 0.00 0.00 0.00 26 1011.8
20260508180012 26 345 14.5 17.7 0.00 0.00 0.00 26 1011.7
20260508175508 25 276 6.4 11.3 0.00 0.00 0.00 28 1011.7
20260508175006 25 351 9.7 16.1 0.00 0.00 0.00 27 1011.8
20260508174503 26 296 14.5 17.7 0.00 0.00 0.00 27 1011.7
20260508174000 25 281 9.7 12.9 0.00 0.00 0.00 28 1012.0
20260508173457 25 217 6.4 9.7 0.00 0.00 0.00 29 1011.6
20260508172953 25 333 14.5 20.9 0.00 0.00 0.00 29 1011.9
20260508172450 25 273 3.2 12.9 0.00 0.00 0.00 29 1011.9
20260508171946 25 268 9.7 11.3 0.00 0.00 0.00 31 1012.1
20260508171443 25 302 9.7 9.7 0.00 0.00 0.00 30 1011.9
20260508170939 24 337 4.8 8.0 0.00 0.00 0.00 32 1012.1
20260508170437 24 254 8.0 14.5 0.00 0.00 0.00 33 1012.2
20260508165934 23 264 3.2 14.5 0.00 0.00 0.00 34 1012.3
20260508165432 23 226 16.1 16.1 0.00 0.00 0.00 34 1012.3
20260508164927 23 302 4.8 9.7 0.00 0.00 0.00 34 1012.3
20260508164425 23 222 14.5 19.3 0.00 0.00 0.00 34 1012.1
20260508163922 23 240 6.4 16.1 0.00 0.00 0.00 36 1012.3
20260508163420 22 305 9.7 14.5 0.00 0.00 0.00 37 1012.2
20260508162915 22 230 6.4 17.7 0.00 0.00 0.00 36 1012.6
20260508162413 22 238 6.4 12.9 0.00 0.00 0.00 36 1012.6
20260508161909 22 227 17.7 20.9 0.00 0.00 0.00 37 1012.5
20260508161407 22 274 6.4 17.7 0.00 0.00 0.00 39 1012.7
20260508160904 22 273 4.8 16.1 0.00 0.00 0.00 39 1012.5
20260508160403 22 254 8.0 22.5 0.00 0.00 0.00 39 1012.8
20260508155858 22 319 9.7 17.7 0.00 0.00 0.00 40 1012.7
20260508155356 21 251 9.7 17.7 0.00 0.00 0.00 40 1012.8
20260508154852 21 289 12.9 20.9 0.00 0.00 0.00 42 1012.7
20260508154350 21 217 9.7 19.3 0.00 0.00 0.00 42 1012.8
20260508153846 21 233 16.1 20.9 0.00 0.00 0.00 43 1012.8
20260508153344 21 281 14.5 20.9 0.00 0.00 0.00 43 1012.9
20260508152839 21 228 14.5 22.5 0.00 0.00 0.00 46 1013.0
20260508152336 20 222 12.9 22.5 0.00 0.00 0.00 48 1012.8
20260508151833 21 251 9.7 17.7 0.00 0.00 0.00 47 1012.9
20260508151330 20 226 12.9 19.3 0.00 0.00 0.00 48 1012.9
20260508150826 20 232 8.0 20.9 0.00 0.00 0.00 51 1012.8
20260508150323 19 228 9.7 22.5 0.00 0.00 0.00 53 1012.9
20260508145819 18 226 17.7 25.7 0.00 0.00 0.00 54 1012.9
20260508145315 19 221 16.1 27.4 0.00 0.00 0.00 54 1012.8
20260508144812 18 204 14.5 19.3 0.00 0.00 0.00 55 1013.1
20260508144310 18 229 14.5 22.5 0.00 0.00 0.00 57 1012.8
20260508143807 17 208 17.7 27.4 0.00 0.00 0.00 58 1012.7
20260508143304 17 214 14.5 32.2 0.00 0.00 0.00 58 1013.1
20260508142801 17 211 27.4 29.0 0.00 0.00 0.00 58 1012.8
20260508142258 18 215 22.5 27.4 0.00 0.00 0.00 57 1013.0
20260508141754 17 199 17.7 24.1 0.00 0.00 0.00 58 1013.1
20260508141251 17 218 6.4 20.9 0.00 0.00 0.00 61 1013.3
20260508140749 17 229 6.4 9.7 0.00 0.00 0.00 61 1013.5
20260508140246 16 234 4.8 8.0 0.00 0.00 0.00 62 1013.2
20260508135741 16 219 6.4 6.4 0.00 0.00 0.00 63 1013.3
20260508135238 15 296 3.2 6.4 0.00 0.00 0.00 64 1013.8
20260508134733 15 282 4.8 9.7 0.00 0.00 0.00 64 1013.7
20260508134232 15 0 1.6 8.0 0.00 0.00 0.00 65 1013.3
20260508133727 15 210 6.4 6.4 0.00 0.00 0.00 65 1013.1
20260508133225 14 292 6.4 6.4 0.00 0.00 0.00 66 1013.3
20260508132722 13 142 1.6 9.7 0.00 0.00 0.00 68 1012.9
20260508132220 13 208 3.2 6.4 0.00 0.00 0.00 69 1012.9
20260508131715 13 207 3.2 4.8 0.00 0.00 0.00 70 1012.7
20260508131212 12 215 0.0 4.8 0.00 0.00 0.00 71 1013.0
20260508130708 12 201 4.8 6.4 0.00 0.00 0.00 72 1013.0
20260508130205 12 188 6.4 6.4 0.00 0.00 0.00 73 1012.9
20260508125655 11 277 1.6 9.7 0.00 0.00 0.00 74 1013.1
20260508125152 11 199 3.2 9.7 0.00 0.00 0.00 75 1012.9
20260508124650 11 190 9.7 14.5 0.00 0.00 0.00 76 1012.5
20260508124147 11 181 9.7 12.9 0.00 0.00 0.00 77 1012.5
20260508123646 10 200 9.7 9.7 0.00 0.00 0.00 78 1012.7
20260508123143 10 202 4.8 8.0 0.00 0.00 0.00 78 1012.7
20260508122639 10 211 3.2 6.4 0.00 0.00 0.00 79 1012.6
20260508122136 10 209 8.0 9.7 0.00 0.00 0.00 80 1012.6
20260508121634 9 180 8.0 12.9 0.00 0.00 0.00 80 1012.6
20260508121132 9 201 11.3 14.5 0.00 0.00 0.00 80 1012.5
20260508120629 9 193 6.4 14.5 0.00 0.00 0.00 81 1012.5
20260508120127 8 199 9.7 9.7 0.00 0.00 0.00 82 1012.3
20260508115625 8 179 6.4 8.0 0.00 0.00 0.00 80 1012.3
20260508115121 9 194 4.8 8.0 0.00 0.00 0.00 80 1012.3
20260508114618 10 207 9.7 11.3 0.00 0.00 0.00 79 1012.3
20260508114114 10 202 8.0 12.9 0.00 0.00 0.00 78 1012.6
20260508113612 10 208 8.0 17.7 0.00 0.00 0.00 77 1012.2
20260508113110 10 202 12.9 22.5 0.00 0.00 0.00 77 1012.1
20260508112605 10 199 9.7 17.7 0.00 0.00 0.00 76 1012.2
20260508112103 11 202 16.1 17.7 0.00 0.00 0.00 76 1012.3
20260508111600 11 210 14.5 20.9 0.00 0.00 0.00 75 1012.5
20260508111057 11 195 14.5 19.3 0.00 0.00 0.00 74 1012.5
20260508110555 12 198 11.3 20.9 0.00 0.00 0.00 73 1012.6
20260508110050 12 205 14.5 19.3 0.00 0.00 0.00 73 1012.3
20260508105545 12 210 9.7 20.9 0.00 0.00 0.00 72 1012.3